FW7370 Weather Reports


Display with metric or nautical units.
time (UTC)temp
F
wind
direction
speed
MPH
gust
MPH
rain 1hr
in
rain 24hr
in
rain mn
in
humidity
%
barometer
mb
20240625054303 83 34 11.0 19.0 0.00 0.00 0.00 88 1025.2
20240625053802 83 51 6.0 15.0 0.00 0.00 0.00 88 1025.3
20240625053301 83 76 9.0 15.0 0.00 0.00 0.00 88 1025.3
20240625052800 82 75 9.0 19.0 0.00 0.00 0.00 88 1025.3
20240625052259 82 72 7.0 20.0 0.00 0.00 0.00 88 1025.7
20240625051243 83 94 10.0 20.0 0.00 0.00 0.00 89 1025.3
20240625050742 83 51 9.0 21.0 0.00 0.00 0.00 89 1026.0
20240625045725 82 34 12.0 21.0 0.00 0.00 0.00 90 1025.4
20240625044708 82 37 10.0 20.0 0.00 0.00 0.00 91 1025.4
20240625044208 82 61 10.0 17.0 0.00 0.00 0.00 91 1025.8
20240625043152 82 65 7.0 16.0 0.00 0.00 0.00 92 1025.5
20240625042651 82 90 6.0 19.0 0.00 0.00 0.00 92 1025.8
20240625042150 82 69 5.0 19.0 0.00 0.00 0.00 92 1025.7
20240625041651 82 36 9.0 19.0 0.00 0.00 0.00 92 1025.5
20240625041150 82 52 10.0 19.0 0.00 0.00 0.00 92 1025.9
20240625040649 82 39 12.0 19.0 0.00 0.00 0.00 92 1026.1
20240625040148 82 77 9.0 16.0 0.00 0.00 0.00 92 1026.5
20240625035647 82 52 7.0 19.0 0.00 0.00 0.09 91 1026.2
20240625034631 83 82 6.0 17.0 0.00 0.00 0.09 89 1026.4
20240625034130 83 84 8.0 20.0 0.00 0.00 0.08 88 1026.4
20240625033629 83 90 11.0 20.0 0.00 0.00 0.08 87 1026.6
20240625032612 83 52 9.0 19.0 0.00 0.00 0.08 87 1026.8
20240625032112 83 47 11.0 19.0 0.00 0.00 0.08 87 1026.6
20240625031611 83 53 9.0 20.0 0.00 0.00 0.08 87 1026.8
20240625031110 83 51 8.0 21.0 0.00 0.00 0.08 87 1026.7
20240625025537 83 30 9.0 17.0 0.00 0.00 0.08 88 1026.8
20240625025036 83 71 7.0 17.0 0.00 0.00 0.08 88 1027.0
20240625024536 83 58 6.0 19.0 0.00 0.00 0.08 88 1026.7
20240625023519 83 66 8.0 19.0 0.00 0.00 0.08 88 1027.0
20240625023018 83 34 9.0 19.0 0.00 0.00 0.08 87 1026.8
20240625022000 83 61 11.0 23.0 0.00 0.00 0.08 87 1026.4
20240625021459 83 80 9.0 19.0 0.00 0.00 0.08 87 1026.6
20240625020442 83 34 9.0 19.0 0.00 0.00 0.08 86 1026.8
20240625015942 83 52 10.0 17.0 0.00 0.00 0.08 86 1026.7
20240625015441 83 31 10.0 17.0 0.00 0.00 0.08 86 1026.7
20240625014940 83 60 6.0 15.0 0.00 0.00 0.08 87 1026.9
20240625014440 83 68 6.0 19.0 0.00 0.00 0.08 86 1026.7
20240625012350 83 84 7.0 19.0 0.00 0.00 0.08 86 1027.2
20240625011850 83 61 7.0 19.0 0.00 0.00 0.08 86 1027.0
20240625010316 83 83 7.0 13.0 0.00 0.00 0.08 85 1026.8
20240625005300 83 71 6.0 13.0 0.00 0.00 0.08 85 1026.7
20240625004243 83 57 6.0 19.0 0.00 0.00 0.08 85 1026.5
20240625003742 83 34 10.0 16.0 0.00 0.00 0.08 85 1026.5
20240625003241 83 50 7.0 14.0 0.00 0.00 0.08 85 1026.8
20240625002739 83 35 8.0 16.0 0.00 0.00 0.08 85 1026.4
20240625002239 83 64 7.0 16.0 0.00 0.00 0.08 85 1026.1
20240625001738 83 52 7.0 15.0 0.00 0.00 0.08 85 1026.2
20240625001237 83 78 8.0 15.0 0.00 0.00 0.08 86 1026.2
20240625000736 83 60 7.0 15.0 0.00 0.00 0.08 86 1026.0
20240624234646 83 70 7.0 14.0 0.00 0.00 0.08 86 1025.7
20240624234146 83 75 7.0 15.0 0.00 0.00 0.08 86 1025.8
20240624233645 83 88 10.0 15.0 0.00 0.00 0.08 86 1025.8
20240624233144 83 59 6.0 17.0 0.00 0.00 0.08 85 1025.7
20240624232643 83 89 9.0 17.0 0.00 0.00 0.08 85 1025.8
20240624232143 83 90 9.0 21.0 0.00 0.00 0.08 85 1025.9
20240624231643 83 67 9.0 21.0 0.00 0.00 0.08 85 1025.5
20240624231142 83 88 7.0 17.0 0.00 0.00 0.08 85 1025.4
20240624230641 83 67 8.0 14.0 0.00 0.00 0.08 85 1025.7
20240624230140 84 88 6.0 14.0 0.00 0.00 0.08 85 1025.5
20240624225639 84 84 7.0 19.0 0.00 0.00 0.08 85 1025.4
20240624224622 83 115 11.0 20.0 0.00 0.00 0.08 84 1025.4
20240624224121 83 93 10.0 19.0 0.00 0.00 0.08 85 1025.1
20240624223620 84 103 8.0 19.0 0.00 0.00 0.08 85 1024.8
20240624222604 84 108 9.0 19.0 0.00 0.00 0.08 84 1025.0
20240624221547 84 106 10.0 19.0 0.00 0.00 0.08 84 1025.0
20240624221046 84 106 10.0 21.0 0.00 0.00 0.08 84 1024.8
20240624220029 84 113 13.0 21.0 0.00 0.00 0.08 84 1024.6
20240624215529 84 108 14.0 21.0 0.00 0.00 0.08 84 1024.5
20240624215029 84 106 16.0 21.0 0.00 0.00 0.08 83 1024.7
20240624214012 84 98 10.0 22.0 0.00 0.00 0.08 83 1024.7
20240624213511 84 76 12.0 23.0 0.00 0.00 0.08 82 1024.6
20240624212456 84 114 15.0 23.0 0.00 0.00 0.08 82 1024.2
20240624211955 84 111 14.0 23.0 0.00 0.00 0.08 82 1024.3
20240624211455 84 114 13.0 22.0 0.00 0.00 0.08 82 1024.2
20240624210954 84 76 9.0 22.0 0.00 0.00 0.08 82 1024.1
20240624210453 84 108 16.0 22.0 0.00 0.00 0.08 82 1024.4
20240624205952 84 108 17.0 19.0 0.00 0.00 0.08 82 1024.4
20240624205451 84 77 10.0 22.0 0.00 0.00 0.08 84 1024.8
20240624204950 84 86 12.0 22.0 0.00 0.00 0.08 84 1024.7
20240624204449 84 97 11.0 22.0 0.00 0.00 0.08 83 1024.5
20240624203948 84 82 10.0 22.0 0.00 0.00 0.08 83 1024.4
20240624203447 84 104 14.0 22.0 0.00 0.00 0.08 82 1024.4
20240624202430 84 116 10.0 16.0 0.00 0.00 0.08 86 1024.4
20240624201929 84 100 9.0 19.0 0.00 0.00 0.08 86 1024.8
20240624201428 84 99 9.0 19.0 0.00 0.00 0.08 86 1024.6
20240624200927 84 112 11.0 21.0 0.00 0.00 0.08 86 1024.4
20240624200426 85 100 7.0 19.0 0.00 0.00 0.08 86 1024.5
20240624195925 85 96 7.0 17.0 0.00 0.00 0.08 86 1024.5
20240624195424 85 106 8.0 17.0 0.00 0.00 0.08 86 1025.2
20240624194923 85 93 7.0 20.0 0.00 0.00 0.08 86 1024.9
20240624194422 84 95 9.0 20.0 0.00 0.00 0.08 85 1024.6
20240624193921 84 81 10.0 16.0 0.00 0.00 0.08 85 1024.9
20240624192346 84 109 12.0 22.0 0.00 0.00 0.08 84 1024.7
20240624191329 84 121 10.0 21.0 0.00 0.00 0.08 84 1024.9
20240624190312 84 91 10.0 21.0 0.00 0.00 0.08 85 1025.1
20240624185811 84 97 11.0 19.0 0.00 0.00 0.08 85 1024.9
20240624185310 84 94 10.0 19.0 0.00 0.00 0.08 85 1025.0
20240624184810 84 81 8.0 23.0 0.00 0.00 0.08 85 1025.1
20240624184309 84 100 13.0 23.0 0.00 0.00 0.08 83 1025.0
20240624183808 84 102 13.0 17.0 0.00 0.00 0.08 83 1025.3
20240624183307 84 91 9.0 17.0 0.00 0.00 0.08 83 1025.1
20240624182806 84 79 8.0 17.0 0.00 0.00 0.08 82 1025.3
20240624182308 84 98 10.0 23.0 0.00 0.00 0.08 81 1025.2
20240624181805 84 125 12.0 23.0 0.00 0.00 0.08 81 1025.4
20240624181304 84 123 14.0 23.0 0.00 0.00 0.08 81 1025.0
20240624180803 84 124 13.0 23.0 0.00 0.00 0.08 84 1025.1
20240624180302 84 117 15.0 23.0 0.00 0.00 0.08 84 1025.0
20240624175801 83 117 11.0 21.0 0.00 0.00 0.08 86 1025.2
20240624175300 83 120 13.0 22.0 0.00 0.00 0.08 87 1025.3
20240624174759 84 126 17.0 23.0 0.00 0.00 0.08 87 1025.1
20240624174258 84 130 16.0 24.0 0.00 0.00 0.08 86 1025.4
20240624173757 84 117 16.0 25.0 0.00 0.00 0.08 86 1025.7
20240624173256 83 115 17.0 25.0 0.00 0.00 0.08 85 1025.8
20240624172239 83 114 14.0 22.0 0.00 0.00 0.08 88 1026.1
20240624171738 83 118 14.0 22.0 0.00 0.00 0.08 89 1025.9
20240624171237 83 113 16.0 24.0 0.00 0.00 0.08 89 1025.7
20240624170736 82 116 16.0 21.0 0.00 0.00 0.08 90 1025.9
20240624165719 82 125 12.0 19.0 0.08 0.00 0.08 91 1026.2
20240624164702 82 122 9.0 16.0 0.08 0.00 0.08 92 1026.5
20240624164201 82 117 10.0 14.0 0.08 0.00 0.08 92 1026.4
20240624163700 81 113 8.0 15.0 0.08 0.00 0.08 91 1026.6
20240624163159 81 126 9.0 15.0 0.08 0.00 0.08 91 1026.6
20240624162658 80 118 8.0 16.0 0.08 0.00 0.08 91 1026.6
20240624161641 80 92 9.0 16.0 0.08 0.00 0.08 90 1026.5
20240624161140 80 81 9.0 14.0 0.08 0.00 0.08 89 1026.6
20240624160123 84 122 19.0 26.0 0.02 0.00 0.02 85 1026.5
20240624155622 86 128 14.0 23.0 0.00 0.00 0.00 83 1026.4
20240624155121 86 124 13.0 19.0 0.00 0.00 0.00 84 1026.5
20240624154620 86 105 7.0 22.0 0.00 0.00 0.00 85 1026.7
20240624154119 86 119 13.0 22.0 0.00 0.00 0.00 84 1026.4
20240624153102 87 124 10.0 20.0 0.00 0.00 0.00 82 1026.4
20240624152601 88 99 10.0 17.0 0.00 0.00 0.00 81 1026.4
20240624152101 87 93 9.0 17.0 0.00 0.00 0.00 82 1026.3
20240624151600 87 111 10.0 26.0 0.00 0.00 0.00 83 1026.8
20240624151059 87 113 14.0 26.0 0.00 0.00 0.00 83 1026.6
20240624150558 87 121 14.0 23.0 0.00 0.00 0.00 82 1026.4
20240624150057 87 95 14.0 22.0 0.00 0.00 0.00 82 1026.2
20240624145556 87 97 11.0 20.0 0.00 0.00 0.00 82 1026.4
20240624145055 87 79 11.0 20.0 0.00 0.00 0.00 83 1026.1
20240624144554 87 109 8.0 20.0 0.00 0.00 0.00 84 1026.3
20240624142505 86 114 15.0 21.0 0.00 0.00 0.00 84 1025.9
20240624142004 86 122 12.0 19.0 0.00 0.00 0.00 84 1026.1
20240624141504 86 107 11.0 17.0 0.00 0.00 0.00 83 1026.6
20240624141003 86 93 10.0 19.0 0.00 0.00 0.00 83 1026.4
20240624140502 86 97 10.0 19.0 0.00 0.00 0.00 84 1026.3
20240624140001 86 88 12.0 23.0 0.00 0.00 0.00 84 1026.4
20240624135500 86 116 11.0 17.0 0.00 0.00 0.00 85 1026.1
20240624134959 86 105 12.0 17.0 0.00 0.00 0.00 84 1025.9
20240624133942 86 103 10.0 19.0 0.00 0.00 0.00 85 1026.1
20240624133441 86 122 11.0 21.0 0.00 0.00 0.00 84 1026.1
20240624132940 86 91 11.0 21.0 0.00 0.00 0.00 84 1026.1
20240624132439 87 88 8.0 17.0 0.00 0.00 0.00 83 1025.9
20240624131938 87 97 11.0 17.0 0.00 0.00 0.00 82 1026.1
20240624131438 87 113 11.0 20.0 0.00 0.00 0.00 82 1025.9
20240624130937 86 103 9.0 20.0 0.00 0.00 0.00 83 1025.7
20240624130437 86 103 9.0 16.0 0.00 0.00 0.00 84 1025.7
20240624125936 86 94 9.0 20.0 0.00 0.00 0.00 84 1025.9
20240624125435 86 76 12.0 20.0 0.00 0.00 0.00 84 1025.8
20240624124934 85 92 10.0 19.0 0.00 0.00 0.00 84 1025.5
20240624124433 85 88 10.0 23.0 0.00 0.00 0.00 83 1025.6
20240624123932 85 97 11.0 19.0 0.00 0.00 0.00 84 1025.6
20240624123431 85 86 12.0 20.0 0.00 0.00 0.00 85 1025.7
20240624122930 85 123 14.0 20.0 0.00 0.00 0.00 86 1025.7
20240624122429 84 107 9.0 16.0 0.00 0.00 0.00 87 1025.7
20240624121928 84 88 9.0 17.0 0.00 0.00 0.00 88 1025.5
20240624121427 84 123 11.0 17.0 0.00 0.00 0.00 87 1025.3
20240624120410 84 105 10.0 20.0 0.00 0.00 0.00 87 1025.3
20240624115909 84 97 10.0 20.0 0.00 0.00 0.00 87 1025.6
20240624115408 84 101 8.0 20.0 0.00 0.00 0.00 88 1025.3
20240624114908 84 108 11.0 20.0 0.00 0.00 0.00 87 1025.1
20240624114408 84 90 10.0 21.0 0.00 0.00 0.00 86 1025.2
20240624113907 84 98 11.0 17.0 0.00 0.00 0.00 86 1025.3
20240624113406 84 74 9.0 16.0 0.00 0.00 0.00 87 1025.1
20240624112349 84 87 14.0 22.0 0.00 0.00 0.00 86 1024.9
20240624111333 84 97 12.0 19.0 0.00 0.00 0.00 86 1025.3
20240624110315 84 115 14.0 20.0 0.00 0.00 0.00 88 1025.1
20240624105814 83 105 11.0 15.0 0.00 0.00 0.00 88 1024.9
20240624105315 83 102 10.0 16.0 0.00 0.00 0.00 88 1024.9
20240624104815 83 104 9.0 17.0 0.00 0.00 0.00 88 1024.9
20240624104314 83 118 12.0 21.0 0.00 0.00 0.00 88 1024.6
20240624103814 83 120 13.0 22.0 0.00 0.00 0.00 87 1024.9
20240624102758 83 119 10.0 21.0 0.00 0.00 0.00 88 1024.6
20240624102257 83 106 9.0 19.0 0.00 0.00 0.00 87 1024.7
20240624101240 83 87 9.0 19.0 0.00 0.00 0.00 87 1024.5
20240624100739 83 94 10.0 17.0 0.00 0.00 0.00 87 1024.5
20240624095216 83 95 10.0 17.0 0.00 0.00 0.00 88 1024.4
20240624094714 83 87 10.0 17.0 0.00 0.00 0.00 88 1024.0
20240624094214 83 93 10.0 16.0 0.00 0.00 0.00 88 1023.8
20240624092127 83 72 9.0 19.0 0.00 0.00 0.00 88 1024.3
20240624091626 83 100 10.0 19.0 0.00 0.00 0.00 88 1023.9
20240624090609 83 85 9.0 15.0 0.00 0.00 0.00 88 1024.1
20240624090108 83 91 9.0 21.0 0.00 0.00 0.00 88 1024.1
20240624085607 83 100 7.0 21.0 0.00 0.00 0.00 87 1023.9
20240624085106 83 86 8.0 16.0 0.00 0.00 0.00 87 1024.2
20240624084605 83 110 13.0 16.0 0.00 0.00 0.00 88 1023.9
20240624084104 83 96 8.0 17.0 0.00 0.00 0.00 88 1024.3
20240624083603 83 97 7.0 17.0 0.00 0.00 0.00 88 1023.9
20240624083102 83 91 9.0 19.0 0.00 0.00 0.00 88 1024.1
20240624082601 82 117 13.0 19.0 0.00 0.00 0.00 88 1024.1
20240624082100 82 84 7.0 15.0 0.00 0.00 0.00 89 1024.2
20240624081559 82 97 9.0 17.0 0.00 0.00 0.00 89 1023.9
20240624081059 82 111 9.0 17.0 0.00 0.00 0.00 90 1024.2
20240624080558 82 103 8.0 13.0 0.00 0.00 0.00 90 1024.1
20240624080057 82 77 5.0 14.0 0.00 0.00 0.00 90 1023.9
20240624075556 82 84 8.0 16.0 0.00 0.00 0.00 90 1024.0
20240624075056 82 75 8.0 19.0 0.00 0.00 0.00 91 1024.0
20240624074555 82 91 10.0 19.0 0.00 0.00 0.00 91 1023.9
20240624074054 82 114 10.0 16.0 0.00 0.00 0.00 91 1023.9
20240624073553 82 37 6.0 12.0 0.00 0.00 0.00 91 1024.1
20240624072021 82 103 10.0 15.0 0.00 0.00 0.00 90 1023.8
20240624071520 82 100 7.0 15.0 0.00 0.00 0.00 90 1023.9
20240624070504 82 89 8.0 14.0 0.00 0.00 0.00 90 1024.0
20240624070004 82 103 9.0 14.0 0.00 0.00 0.00 90 1024.0
20240624065504 82 87 7.0 14.0 0.00 0.00 0.00 90 1023.8
20240624065003 82 72 6.0 20.0 0.00 0.00 0.00 89 1023.9
20240624064503 82 94 10.0 20.0 0.00 0.00 0.00 89 1023.9
20240624064003 82 102 14.0 22.0 0.00 0.00 0.00 89 1023.9
20240624062431 82 96 12.0 17.0 0.00 0.00 0.00 88 1024.0
20240624061930 81 105 14.0 19.0 0.00 0.00 0.00 87 1023.9
20240624061429 81 88 10.0 19.0 0.00 0.00 0.00 87 1024.1
20240624060928 81 72 11.0 19.0 0.00 0.00 0.00 87 1024.2
20240624060427 81 100 8.0 19.0 0.00 0.00 0.00 87 1024.1
20240624055926 81 101 9.0 22.0 0.00 0.00 0.00 87 1024.5
20240624055425 81 85 10.0 22.0 0.00 0.00 0.00 87 1024.3
20240624054924 81 88 9.0 15.0 0.00 0.00 0.00 88 1024.2